Retour au catalogue

STARLINK-4156

ActifCommunicationsVLEO
NORAD 53038·PAYLOAD·🇺🇸 United States

Lancé Jul 7, 2022 depuis Cape Canaveral Space Force Station

Loading…

Prochains Passages (prochaines 24 heures)

TLE

FraisSource: CelesTrak SupGP

Époque: Sep 15, 2026, 02:47 UTC

1 53038C 22076BE  26258.11645833  .00003127  00000+0  92377-4 0  2582
2 53038  53.1591 298.7181 0001359  88.4959 358.2908 15.34395719    15

Suivez STARLINK-4156 en temps réel avec AllMySat

Download on the App Store